CZ-6A DEB, 60968

Orbit data source: Space-Track

CZ-6A DEB, 60968 is space debris in LEO originally from a launch on Tue, 06 Aug 2024 UTC launched from the Taiyaun Space Center, China (TSC). Debris objects in space refer to the collection of defunct objects orbiting the Earth. Examples of debris include non-operational satellites, rocket bodies, and fragments generated from explosions, collisions, or faulty payload assembly.

Loading next visibility...
Identifier
60968, 2024-140LT
Orbit
LEO
Country
Flag of CNCN / PRC
Related business
Manufacturer
SAST
Mission
Spacecraft
Bus & Motor
Unknown
Mass
Unknown
Launch date (UTC)
2024-08-06 (2 years ago)
Launch vehicle
Unknown
Launch site
Taiyaun Space Center, China (TSC)
Object type
Payload
Rocket body
Debris
Shape & HBR
Unknown shape, 0.1 m
Radar Cross Section
Small (<0.1 m²)

Expand to show TLE details & history
Last TLE update: 13 hours ago

TLE from 13 hours ago
0 CZ-6A DEB
1 60968U 24140LT  26118.43221409  .00000437  00000-0  20323-3 0  9990
2 60968  89.0011 280.9325 0051169 353.7836   6.2711 14.18237522 87991
Epoch: 2026-04-28T10:22Z
TLE epoch observation values (Epoch: 2026-04-28T10:22:23.297Z)
Latitude
-0.00007°
Longitude
-91.07218°
Altitude
797.695 km
Speed
7.474 km/s
True Right ascension
18h 43m 43s
True Declination
0° 00' 00"
Sunlit
Object was in daylight at epoch
Visualization orbit readout
Latitude
Unknown
Longitude
Unknown
Altitude
Unknown
Speed
Unknown
Apparent Right ascension
Unknown
Apparent Declination
Unknown
Sunlit
N/A
Visualization observer readout
Local Sidereal Time
06:29:52
Azimuth
Unknown
Elevation
Unknown
Doppler factor
Unknown
Orbital elements
Apogee altitude
865.148 km
Perigee altitude
791.399 km
Semi-major axis
7,206.41 km
Eccentricity
0.00512
Inclination
89.0011°
RAAN
280.9325°
Arg. of periapsis
353.7836°
True anomaly
6.33556°
Mean anomaly
6.2711°
Eccentric anomaly
6.30329°
Mean motion
3.54785 °/min
Orbital period
101.47 mins
BSTAR
0.00020323
Loading maneuver chart data...
Computing Atmospheric mass density...
Loading historical data...
Loading historical data...
Loading historical data...
Loading historical data...
Loading historical data...
Loading historical data...
Loading historical data...

Documentation

Showing up to 5 results
|